[[{"header":{"parameterUnit":"m.s-1","parameterCategory":1,"la1":30.2991,"la2":30.254,"lo1":-89.0895,"lo2":-89.0444,"dy":0.0017,"dx":0.0017,"nx":28,"ny":28,"refTime":"2023-05-01T21:00:00:Z","depth":0,"parameterNumber":2,"parameterNumberName":"U-component_of_WINDS"},"data":[0,0,0,0,0,0,0,0,0,0,0,0,0,0,0,0,0,0,0,0,0,0,0,0,0,0,0,0,0,0,0,0,0,0,0,0,0,0,0,0,0,0,0,0,0,0,0,0,0,0,0,0,0,0,0,0,0,0,-0.202,-0.2021,0,-0.2056,-0.2056,-0.2057,-0.2056,-0.2056,-0.2055,-0.2055,-0.2092,-0.2093,-0.2095,0,0,0,0,0,0,0,0,0,0,0,0,0,-0.1951,-0.1952,-0.202,-0.2021,-0.2021,-0.2056,-0.2056,-0.2057,-0.2057,-0.2056,-0.2055,-0.2055,-0.2092,-0.2093,-0.2095,0,0,0,0,0,0,0,0,0,0,0,0,0,-0.1983,-0.1953,-0.202,-0.2025,-0.2026,-0.2056,-0.2056,-0.2057,-0.2057,-0.2056,-0.2055,-0.2055,-0.2091,-0.2093,-0.2095,-0.2123,0,0,-0.2102,-0.2103,0,0,0,0,0,0,0,0,-0.1981,-0.1986,-0.2024,-0.2025,-0.2026,-0.2051,-0.2045,-0.2079,-0.2057,-0.2045,-0.2055,-0.2054,-0.2079,-0.2082,-0.209,-0.2124,-0.2126,-0.2102,-0.2103,-0.2104,-0.2105,0,0,0,0,0,0,0,-0.1979,-0.1984,-0.2034,-0.2024,-0.2026,-0.2025,-0.2029,-0.2052,-0.2066,-0.2046,-0.2046,-0.205,-0.2079,-0.2088,-0.2091,-0.2126,-0.2102,-0.2104,-0.2105,-0.2106,-0.2182,-0.2183,0,0,0,0,0,0,-0.1976,-0.1982,-0.2033,-0.2035,-0.2001,-0.2027,-0.2031,-0.2044,-0.2065,-0.2068,-0.2051,-0.205,-0.2085,-0.2089,-0.2092,-0.2125,-0.2104,-0.2106,-0.2107,-0.2182,-0.2183,-0.2183,0,0,0,0,0,0,-0.1975,-0.1981,-0.2032,-0.2009,-0.2015,-0.2029,-0.2043,-0.2045,-0.2054,-0.2069,-0.2071,-0.2057,-0.2085,-0.2089,-0.2115,-0.2126,-0.2107,-0.2109,-0.2181,-0.2182,-0.2183,-0.219,0,0,0,0,0,0,-0.1973,-0.198,-0.1991,-0.2009,-0.2017,-0.2054,-0.2044,-0.2046,-0.2057,-0.2057,-0.2076,-0.2078,-0.2084,-0.2111,-0.2117,-0.2129,-0.2111,-0.218,-0.2181,-0.2183,-0.2189,-0.2191,-0.2193,0,0,0,0,0,-0.197,-0.1992,-0.1991,-0.1998,-0.2031,-0.2054,-0.2058,-0.2065,-0.2058,-0.2069,-0.2078,-0.2078,-0.2124,-0.2114,-0.212,-0.2133,-0.2179,-0.2181,-0.2182,-0.2188,-0.2191,-0.2193,0,0,0,0,0,0,-0.1975,-0.1995,-0.1994,-0.2023,-0.2037,-0.2054,-0.2068,-0.2068,-0.2085,-0.2083,-0.2091,-0.2095,-0.212,-0.2129,-0.2117,-0.2159,-0.2151,-0.2154,-0.2152,-0.2155,-0.2157,-0.2155,-0.2112,0,0,0,0,0,-0.198,-0.1997,-0.2013,-0.2037,-0.2044,-0.2055,-0.2065,-0.2069,-0.2084,-0.209,-0.2101,-0.2116,-0.2133,-0.2145,-0.2162,-0.219,-0.2193,-0.2201,-0.2203,-0.2205,-0.2208,-0.2221,-0.2225,-0.2189,-0.2189,-0.2189,0,0,-0.1989,-0.2002,-0.2013,-0.2038,-0.2049,-0.2067,-0.206,-0.2079,-0.2092,-0.2093,-0.2117,-0.2126,-0.2142,-0.2168,-0.218,-0.2176,-0.2218,-0.2207,-0.2209,-0.221,-0.2223,-0.2227,-0.223,-0.219,-0.219,-0.219,0,0,-0.2015,-0.2027,-0.2047,-0.2058,-0.2075,-0.2082,-0.2086,-0.2104,-0.2109,-0.2133,-0.2134,-0.2149,-0.218,-0.2191,-0.2201,-0.2229,-0.2228,-0.2234,-0.2246,-0.2259,-0.2262,-0.2264,-0.2273,-0.2276,-0.2236,-0.2236,-0.2236,0,-0.2025,-0.2052,-0.2058,-0.2077,-0.2087,-0.2088,-0.2107,-0.2118,-0.214,-0.2147,-0.2142,-0.2179,-0.2191,-0.2218,-0.2225,-0.2233,-0.2238,-0.2232,-0.2261,-0.2263,-0.2266,-0.2274,-0.2278,-0.2237,-0.2237,-0.2237,-0.2237,0,-0.2062,-0.2081,-0.2095,-0.2115,-0.2127,-0.2146,-0.2155,-0.2166,-0.2168,-0.2175,-0.2199,-0.2212,-0.2231,-0.2238,-0.2241,-0.2266,-0.2263,-0.2259,-0.2251,-0.227,-0.2278,-0.2281,-0.2238,-0.2237,-0.2237,-0.2237,0,0,-0.2094,-0.2115,-0.212,-0.2129,-0.2146,-0.2161,-0.2179,-0.2197,-0.2207,-0.2221,-0.2237,-0.2261,-0.2258,-0.2269,-0.2272,-0.2284,-0.2304,-0.2279,-0.228,-0.2282,-0.2331,-0.2333,-0.2336,-0.2303,-0.2304,-0.2305,-0.2329,0,-0.2121,-0.2154,-0.2159,-0.2188,-0.2205,-0.2204,-0.222,-0.2233,-0.2239,-0.2254,-0.2261,-0.2278,-0.2273,-0.2279,-0.2291,-0.2299,-0.2313,-0.2297,-0.2317,-0.2318,-0.2313,-0.2341,-0.2343,-0.2366,-0.2332,-0.2333,-0.2333,0,-0.2158,-0.2172,-0.2202,-0.2216,-0.2223,-0.2238,-0.2254,-0.2268,-0.2281,-0.2285,-0.2296,-0.2298,-0.2317,-0.2307,-0.2332,-0.2321,-0.2329,-0.2334,-0.2335,-0.2337,-0.2326,-0.2343,-0.2373,-0.2376,-0.2339,-0.2338,-0.2338,0,-0.2176,-0.2203,-0.2224,-0.2232,-0.2249,-0.2259,-0.2266,-0.2279,-0.2289,-0.2303,-0.2309,-0.2325,-0.2334,-0.2346,-0.2351,-0.2344,-0.2376,-0.2367,-0.2379,-0.2378,-0.2385,-0.2385,-0.2417,-0.2392,-0.2391,-0.2391,-0.2391,0,-0.2206,-0.2224,-0.2233,-0.2246,-0.2266,-0.2271,-0.2291,-0.2298,-0.2309,-0.2323,-0.2324,-0.2337,-0.2344,-0.2358,-0.2362,-0.2381,-0.2385,-0.2389,-0.2389,-0.2388,-0.2388,-0.2394,-0.2392,-0.2392,-0.2392,-0.2392,-0.2392,0,-0.223,-0.2237,-0.226,-0.2273,-0.2277,-0.2291,-0.2303,-0.2315,-0.2321,-0.2338,-0.2343,-0.2352,-0.2368,-0.2375,-0.2395,-0.2398,-0.2419,-0.242,-0.2415,-0.2415,-0.2426,-0.2424,-0.2463,-0.2467,-0.2439,-0.244,-0.244,0,-0.2248,-0.2262,-0.2277,-0.2286,-0.2294,-0.2309,-0.2318,-0.2323,-0.2333,-0.2348,-0.2359,-0.2374,-0.2388,-0.2413,-0.2421,-0.2436,-0.2436,-0.2448,-0.2439,-0.2436,-0.2435,-0.2434,-0.2435,-0.245,-0.2451,-0.2451,-0.2451,0,-0.228,-0.2282,-0.2296,-0.231,-0.2322,-0.2334,-0.2345,-0.2353,-0.2359,-0.237,-0.2386,-0.2396,-0.2416,-0.2431,-0.2446,-0.2453,-0.2453,-0.2454,-0.2457,-0.2456,-0.2452,-0.2453,-0.2419,-0.2453,-0.2453,-0.2453,-0.2453,-0.2453,-0.2301,-0.2313,-0.2324,-0.2339,-0.2348,-0.2359,-0.237,-0.2377,-0.239,-0.2406,-0.2408,-0.2425,-0.2437,-0.2457,-0.2464,-0.2477,-0.2474,-0.2479,-0.248,-0.2481,-0.2481,-0.245,-0.248,-0.248,-0.248,-0.248,-0.248,0,-0.2331,-0.2338,-0.2352,-0.2368,-0.2379,-0.2377,-0.2389,-0.2399,-0.2414,-0.2424,-0.2437,-0.2454,-0.2469,-0.2477,-0.2492,-0.25,-0.25,-0.2504,-0.2503,-0.2504,-0.2484,-0.2479,-0.2503,-0.2503,-0.2503,-0.2503,-0.2503,-0.2503,-0.2349,-0.2368,-0.2371,-0.2394,-0.2401,-0.2417,-0.2424,-0.2434,-0.2442,-0.2461,-0.2473,-0.2478,-0.2488,-0.2503,-0.2515,-0.2517,-0.2522,-0.2526,-0.2528,-0.2509,-0.2506,-0.2504,-0.2499,-0.2527,-0.2527,-0.2547,-0.2547,-0.2547]},{"header":{"parameterUnit":"m.s-1","parameterCategory":1,"la1":30.2991,"la2":30.254,"lo1":-89.0895,"lo2":-89.0444,"dy":0.0017,"dx":0.0017,"nx":28,"ny":28,"refTime":"2023-05-01T21:00:00:Z","depth":0,"parameterNumber":3,"parameterNumberName":"V-component_of_WINDS"},"data":[0,0,0,0,0,0,0,0,0,0,0,0,0,0,0,0,0,0,0,0,0,0,0,0,0,0,0,0,0,0,0,0,0,0,0,0,0,0,0,0,0,0,0,0,0,0,0,0,0,0,0,0,0,0,0,0,0,0,-2.7782,-2.7783,0,-2.7849,-2.785,-2.785,-2.7821,-2.7819,-2.7817,-2.7816,-2.788,-2.7884,-2.7887,0,0,0,0,0,0,0,0,0,0,0,0,0,-2.7624,-2.7627,-2.7782,-2.7783,-2.7784,-2.7849,-2.785,-2.7851,-2.7821,-2.7819,-2.7817,-2.7815,-2.7879,-2.7883,-2.7887,0,0,0,0,0,0,0,0,0,0,0,0,0,-2.7692,-2.7628,-2.7782,-2.7777,-2.7777,-2.7849,-2.785,-2.7851,-2.7821,-2.7819,-2.7816,-2.7814,-2.7878,-2.7883,-2.7888,-2.7967,0,0,-2.7902,-2.7905,0,0,0,0,0,0,0,0,-2.7688,-2.7698,-2.7777,-2.7777,-2.7778,-2.7824,-2.7818,-2.789,-2.7822,-2.7804,-2.7816,-2.7813,-2.7863,-2.7869,-2.7887,-2.797,-2.7973,-2.7903,-2.7906,-2.7908,-2.7909,0,0,0,0,0,0,0,-2.7684,-2.7695,-2.7808,-2.7778,-2.7778,-2.777,-2.7777,-2.7831,-2.7847,-2.7806,-2.7804,-2.7812,-2.7863,-2.7882,-2.7888,-2.7974,-2.7903,-2.7907,-2.791,-2.7912,-2.8124,-2.8127,0,0,0,0,0,0,-2.7679,-2.7691,-2.7806,-2.781,-2.7726,-2.7775,-2.7782,-2.7812,-2.7846,-2.7849,-2.7814,-2.7811,-2.7875,-2.7883,-2.7891,-2.7985,-2.7908,-2.7913,-2.7915,-2.8121,-2.8125,-2.8128,0,0,0,0,0,0,-2.7676,-2.769,-2.7804,-2.775,-2.7764,-2.778,-2.7813,-2.7814,-2.7834,-2.7853,-2.7855,-2.7832,-2.7874,-2.7884,-2.7948,-2.7987,-2.7915,-2.7919,-2.8118,-2.8122,-2.8126,-2.8175,0,0,0,0,0,0,-2.7672,-2.7689,-2.772,-2.7751,-2.7767,-2.7862,-2.7815,-2.7817,-2.7842,-2.7838,-2.7869,-2.7872,-2.7873,-2.7941,-2.7953,-2.7992,-2.7923,-2.8115,-2.812,-2.8125,-2.817,-2.818,-2.8189,0,0,0,0,0,-2.7666,-2.7731,-2.7722,-2.7736,-2.7807,-2.7864,-2.7873,-2.7873,-2.7846,-2.7877,-2.7889,-2.7871,-2.7981,-2.7948,-2.7961,-2.8002,-2.8112,-2.8119,-2.8124,-2.8166,-2.8178,-2.8189,0,0,0,0,0,0,-2.7703,-2.7735,-2.7725,-2.7802,-2.7831,-2.7859,-2.7898,-2.7886,-2.7922,-2.7917,-2.7914,-2.7921,-2.7988,-2.8002,-2.7965,-2.8081,-2.8042,-2.8051,-2.8069,-2.8081,-2.8091,-2.8085,-2.7927,0,0,0,0,0,-2.772,-2.7765,-2.779,-2.7855,-2.787,-2.7882,-2.7907,-2.7904,-2.7933,-2.7945,-2.7962,-2.7989,-2.803,-2.8056,-2.8095,-2.8172,-2.8178,-2.8207,-2.8216,-2.8224,-2.8232,-2.8272,-2.8285,-2.8148,-2.8147,-2.8147,0,0,-2.7755,-2.7779,-2.7807,-2.7863,-2.7885,-2.793,-2.7892,-2.7942,-2.7975,-2.7952,-2.8014,-2.8027,-2.8058,-2.8129,-2.8161,-2.8142,-2.8271,-2.8232,-2.8238,-2.8241,-2.828,-2.8293,-2.8305,-2.8152,-2.8151,-2.815,0,0,-2.7843,-2.7866,-2.7922,-2.7945,-2.7979,-2.7986,-2.8,-2.803,-2.8038,-2.8101,-2.8085,-2.8123,-2.8194,-2.8216,-2.8236,-2.8332,-2.8317,-2.8345,-2.8394,-2.8434,-2.8445,-2.8454,-2.8487,-2.8499,-2.8352,-2.8353,-2.8353,0,-2.7883,-2.7952,-2.7952,-2.8004,-2.8028,-2.8011,-2.8067,-2.8089,-2.8133,-2.815,-2.8129,-2.8217,-2.8236,-2.8311,-2.8335,-2.8353,-2.8367,-2.8341,-2.8443,-2.8453,-2.8462,-2.8493,-2.8506,-2.8356,-2.8355,-2.8355,-2.8355,0,-2.7998,-2.8046,-2.8087,-2.8132,-2.8161,-2.8214,-2.8222,-2.8251,-2.8247,-2.8256,-2.8319,-2.8342,-2.8384,-2.8402,-2.8398,-2.8477,-2.8464,-2.8444,-2.8405,-2.8478,-2.8508,-2.852,-2.836,-2.8359,-2.8358,-2.8357,0,0,-2.811,-2.8155,-2.817,-2.8189,-2.8225,-2.8262,-2.8314,-2.8357,-2.8381,-2.8412,-2.8455,-2.8515,-2.8496,-2.8519,-2.8517,-2.8552,-2.8625,-2.8527,-2.8527,-2.8543,-2.8713,-2.8727,-2.8741,-2.8616,-2.8618,-2.862,-2.871,0,-2.8199,-2.8292,-2.8294,-2.8379,-2.8422,-2.8407,-2.8452,-2.8478,-2.8488,-2.8525,-2.8535,-2.8578,-2.855,-2.8564,-2.8598,-2.8609,-2.8659,-2.8603,-2.8654,-2.8656,-2.8646,-2.8757,-2.8773,-2.8856,-2.8721,-2.8723,-2.8725,0,-2.8316,-2.8352,-2.8441,-2.8471,-2.8489,-2.853,-2.8569,-2.8605,-2.8634,-2.8639,-2.8665,-2.8658,-2.8709,-2.867,-2.874,-2.8702,-2.8723,-2.8731,-2.8735,-2.8738,-2.8694,-2.8762,-2.8883,-2.8895,-2.8743,-2.8742,-2.874,0,-2.8387,-2.8458,-2.852,-2.8538,-2.8574,-2.8603,-2.8619,-2.8646,-2.8671,-2.8705,-2.8721,-2.876,-2.8781,-2.8811,-2.8813,-2.8785,-2.8884,-2.8845,-2.8887,-2.8887,-2.8908,-2.8906,-2.9032,-2.8924,-2.8923,-2.8923,-2.8923,0,-2.8486,-2.8541,-2.8553,-2.8591,-2.8651,-2.8653,-2.8712,-2.8726,-2.875,-2.8789,-2.8778,-2.8815,-2.8817,-2.8854,-2.8857,-2.8914,-2.8923,-2.8927,-2.8927,-2.8928,-2.8927,-2.894,-2.8934,-2.8926,-2.8926,-2.8925,-2.8925,0,-2.8576,-2.8586,-2.8653,-2.8682,-2.8691,-2.8734,-2.8758,-2.8794,-2.8803,-2.8852,-2.8864,-2.8878,-2.8921,-2.8927,-2.8978,-2.8979,-2.9047,-2.9042,-2.9038,-2.9037,-2.9078,-2.9074,-2.9216,-2.9234,-2.9115,-2.9116,-2.9117,0,-2.8638,-2.868,-2.8714,-2.874,-2.8758,-2.8801,-2.8827,-2.883,-2.8857,-2.8893,-2.8924,-2.8967,-2.9001,-2.9071,-2.9084,-2.9122,-2.9116,-2.9164,-2.9122,-2.9121,-2.9116,-2.9113,-2.9116,-2.9171,-2.9173,-2.9174,-2.9175,0,-2.8746,-2.8749,-2.8788,-2.8829,-2.8861,-2.8893,-2.8922,-2.8944,-2.8951,-2.8982,-2.9027,-2.9053,-2.9105,-2.9147,-2.9185,-2.92,-2.9188,-2.9188,-2.9199,-2.92,-2.9196,-2.9197,-2.9058,-2.9184,-2.9183,-2.9182,-2.9182,-2.9182,-2.8823,-2.8859,-2.8889,-2.8932,-2.8956,-2.8984,-2.9019,-2.9032,-2.907,-2.9114,-2.9113,-2.9162,-2.9189,-2.9239,-2.9256,-2.9294,-2.9278,-2.9295,-2.9299,-2.9303,-2.9307,-2.9191,-2.9301,-2.93,-2.93,-2.93,-2.93,0,-2.893,-2.8949,-2.8989,-2.9031,-2.9065,-2.9053,-2.9085,-2.9114,-2.9157,-2.9184,-2.9218,-2.9269,-2.931,-2.9327,-2.9366,-2.9393,-2.9388,-2.9403,-2.94,-2.9403,-2.9319,-2.9305,-2.9406,-2.9406,-2.9406,-2.9406,-2.9406,-2.9406,-2.8989,-2.905,-2.9056,-2.9128,-2.9145,-2.9194,-2.9214,-2.9239,-2.9261,-2.9319,-2.9353,-2.9364,-2.9386,-2.9427,-2.9463,-2.9467,-2.9481,-2.9498,-2.9499,-2.942,-2.9409,-2.9399,-2.9385,-2.9502,-2.9502,-2.958,-2.9581,-2.9581]}]]